Jaipur, India

5:36 PM IST on September 25, 2017 (GMT +0530)
Jaipur

Weather History for VIJP - January, 2013

Change the Weather History Date:

Friday, January 25, 2013

  Actual Average Record
Temperature  
Mean Temperature 56 °F -  
Max Temperature 69 °F - - ()
Min Temperature 42 °F - - ()
Degree Days  
Heating Degree Days 10    
Growing Degree Days 6 (Base 50)    
Moisture  
Dew Point 34 °F    
Average Humidity 46    
Maximum Humidity 81    
Minimum Humidity 18    
Precipitation  
Precipitation 0.00 in - - ()
Sea Level Pressure  
Sea Level Pressure 30.14 in    
Wind  
Wind Speed 2 mph ()    
Max Wind Speed 7 mph    
Max Gust Speed -    
Visibility 1.6 miles    
Events      
T = Trace of Precipitation, MM = Missing Value Source: Averaged Metar Reports

Daily Weather History Graph

Daily Weather History Graph

Search for Another Location

Airport or City:

Trip Planner

Search our weather history database for the weather conditions in past years. The results will help you decide how hot, cold, wet, or windy it might be!

Date:

Astronomy

Jan. 25, 2013 Rise Set
Actual Time 7:15 AM IST 6:03 PM IST
Civil Twilight 6:50 AM IST 6:28 PM IST
Nautical Twilight 6:22 AM IST 6:56 PM IST
Astronomical Twilight 5:54 AM IST 7:23 PM IST
Moon 4:36 PM IST 5:33 AM IST
Length of Visible Light 11h 37m
Length of Day
10h 48m
Waxing Gibbous, 96% of the Moon is Illuminated
Jan 25
Waxing Gibbous
Jan 27
Full
Feb 3
Last Quarter
Feb 10
New
Feb 18
First Quarter

Hourly Weather History & Observations

Time (IST) Temp. Dew Point Humidity Pressure Visibility Wind Dir Wind Speed Gust Speed Precip Events Conditions
12:00 AM 51.8 °F 35.6 °F 54% 30.15 in 1.2 mi Calm Calm - N/A   Smoke
1:00 AM 51.8 °F 37.4 °F 58% 30.12 in 1.2 mi Variable 2.3 mph - N/A   Smoke
2:00 AM 51.8 °F 39.2 °F 62% 30.12 in 1.2 mi Variable 2.3 mph - N/A   Smoke
3:00 AM 50.0 °F 39.2 °F 66% 30.12 in 1.2 mi Calm Calm - N/A   Smoke
5:00 AM 46.4 °F 37.4 °F 71% 30.12 in 1.2 mi Calm Calm - N/A   Smoke
5:30 AM 44 °F 37 °F 70% 30.19 in 1 mi Calm Calm - -   Mist
6:00 AM 44.6 °F 37.4 °F 76% 30.12 in 1.2 mi Calm Calm - N/A   Mist
6:30 AM 44.6 °F 37.4 °F 76% 30.15 in 1.2 mi Calm Calm - N/A   Mist
7:00 AM 46.4 °F 37.4 °F 71% 30.15 in 1.2 mi Calm Calm - N/A   Mist
7:30 AM 44.6 °F 39.2 °F 81% 30.15 in 1.0 mi Calm Calm - N/A   Smoke
8:30 AM 47 °F 38 °F 63% 30.19 in 1 mi Calm Calm - -   Smoke
9:00 AM 57.2 °F 39.2 °F 51% 30.18 in 1.2 mi Variable 3.5 mph - N/A   Smoke
10:00 AM 60.8 °F 39.2 °F 45% 30.21 in 1.6 mi South 3.5 mph - N/A   Haze
11:00 AM 64.4 °F 35.6 °F 34% 30.21 in 1.9 mi SSE 4.6 mph - N/A   Haze
11:30 AM 67 °F 33 °F 18% 30.14 in 1 mi NW 2.3 mph - -   Haze
1:00 PM 68.0 °F 24.8 °F 20% 30.15 in 2.5 mi West 6.9 mph - N/A   Haze
2:00 PM 69.8 °F 28.4 °F 21% 30.12 in 2.5 mi Variable 6.9 mph - N/A   Haze
2:30 PM 69.8 °F 26.6 °F 20% 30.12 in 2.5 mi Variable 4.6 mph - N/A   Haze
3:00 PM 69.8 °F 26.6 °F 20% 30.12 in 2.5 mi WNW 5.8 mph - N/A   Haze
4:00 PM 69.8 °F 30.2 °F 23% 30.12 in 2.5 mi WNW 5.8 mph - N/A   Haze
5:00 PM 69.8 °F 28.4 °F 21% 30.12 in 2.5 mi Variable 3.5 mph - N/A   Haze
5:30 PM 68.0 °F 28.4 °F 23% 30.12 in 2.5 mi NW 4.6 mph - N/A   Haze
6:00 PM 66.2 °F 30.2 °F 26% 30.12 in 2.2 mi NW 3.5 mph - N/A   Haze
8:00 PM 60.8 °F 33.8 °F 36% 30.12 in 1.6 mi Calm Calm - N/A   Haze
8:30 PM 58 °F 38 °F 36% 30.12 in 1 mi Calm Calm - -   Haze
9:00 PM 55.4 °F 37.4 °F 51% 30.12 in 1.2 mi Calm Calm - N/A   Haze
11:00 PM 51.8 °F 33.8 °F 50% 30.15 in 1.6 mi Variable 1.2 mph - N/A   Haze
11:30 PM 54 °F 34 °F 34% 30.14 in 1 mi Calm Calm - -   Haze